Wind from 315

Air temperature 18.3° C
Dewpoint -6.4° C

Last reported at 2014-Apr-24 10:27 UTC.
Time now 2014-Apr-24 11:12 UTC

Location: N 34°48' E 135°40'.
View on Google Maps.

See reports from other nearby stations

Tides Stations Pressure Air Temp Water Temp Dewpoint Dewpoint depression Visibility Wind Speed Wind Dir Waves Ship positions

  
sailing weather and tide predictions

JA3VQW-13 Hirakata JP weather

date/time (UTC)wind fromknots sea level pressurealtimeterstation pressurevisibilityair tempwater tempwave heightnotes
2014-Apr-24 10:27 315 18.3
2014-Apr-24 09:57 304 19.4
2014-Apr-24 09:27 269 2 gusting 4 20.6
2014-Apr-24 08:57 143 22.2
2014-Apr-24 08:27 243 23.9
2014-Apr-24 07:57 292 28.3
2014-Apr-24 07:27 259 30.0
2014-Apr-24 06:57 248 30.0
2014-Apr-24 06:27 315 29.4
2014-Apr-24 05:57 282 29.4
2014-Apr-24 05:27 279 28.9
2014-Apr-24 04:57 202 27.2
2014-Apr-24 04:27 270 26.1
2014-Apr-24 03:57 001 25.6
2014-Apr-24 03:27 291 24.4
2014-Apr-24 02:57 199 23.9
2014-Apr-24 02:27 294 22.8
2014-Apr-24 01:57 292 19.4
2014-Apr-24 01:27 270 18.3
2014-Apr-24 00:57 292 17.2
2014-Apr-24 00:27 275 16.1
2014-Apr-23 23:57 135 15.0
2014-Apr-23 23:27 292 13.9
2014-Apr-23 22:57 270 12.8
2014-Apr-23 22:27 270 11.1
2014-Apr-23 21:57 225 10.6
2014-Apr-23 21:27 202 9.4
2014-Apr-23 20:27 180 8.9
2014-Apr-23 19:57 180 9.4
2014-Apr-23 19:27 180 9.4
2014-Apr-23 18:57 180 9.4
2014-Apr-23 18:27 180 10.0
2014-Apr-23 17:57 270 10.6
2014-Apr-23 17:27 270 11.1
2014-Apr-23 16:57 270 11.1
2014-Apr-23 16:27 090 11.7
2014-Apr-23 15:57 095 11.7
2014-Apr-23 15:27 135 12.2
2014-Apr-23 14:57 270 13.3
2014-Apr-23 14:27 270 13.3
2014-Apr-23 13:57 270 13.9
2014-Apr-23 13:27 270 13.9
2014-Apr-23 12:27 270 14.4
2014-Apr-23 11:57 270 15.0
2014-Apr-23 11:27 269 15.6
2014-Apr-23 10:57 277 16.1
2014-Apr-23 10:27 240 17.2
2014-Apr-23 09:57 212 17.8
2014-Apr-23 09:27 271 20.0
2014-Apr-23 08:57 298 21.7
2014-Apr-23 08:27 266 23.3
2014-Apr-23 07:57 297 24.4
2014-Apr-23 07:27 271 24.4
2014-Apr-23 06:57 261 25.6
2014-Apr-23 06:27 300 24.4
2014-Apr-23 05:57 272 23.3
2014-Apr-23 05:27 292 24.4
2014-Apr-23 04:57 276 21.7
2014-Apr-23 04:34 315 22.8
2014-Apr-23 04:04 261 2 gusting 4 21.7
2014-Apr-23 03:34 310 1 gusting 6 21.7
2014-Apr-23 03:04 292 23.3
2014-Apr-23 02:34 045 22.2
2014-Apr-23 02:04 315 19.4
2014-Apr-23 01:34 270 18.3
2014-Apr-23 01:04 270 17.2
2014-Apr-23 00:34 292 15.6
2014-Apr-23 00:04 158 15.0
2014-Apr-22 23:34 180 13.9
2014-Apr-22 23:04 270 12.8
2014-Apr-22 22:34 248 11.1
2014-Apr-22 22:04 248 10.0
2014-Apr-22 21:34 202 10.0
2014-Apr-22 21:04 180 8.9
2014-Apr-22 20:34 180 8.9
2014-Apr-22 20:04 180 8.9
2014-Apr-22 19:34 180 9.4
2014-Apr-22 19:04 180 9.4
2014-Apr-22 18:34 180 10.0
2014-Apr-22 18:04 180 10.0
2014-Apr-22 17:34 180 10.6
2014-Apr-22 17:04 180 11.1
2014-Apr-22 16:34 270 11.7
2014-Apr-22 16:04 270 11.7
2014-Apr-22 15:34 270 12.2
2014-Apr-22 15:04 270 12.2
2014-Apr-22 14:34 270 12.8
2014-Apr-22 14:04 270 13.3
2014-Apr-22 13:34 270 13.9
2014-Apr-22 13:05 225 14.4
2014-Apr-22 11:34 270 15.0
2014-Apr-22 11:04 270 15.6